• In Netherlands
  • List of Countries
  • For 7 days
  • Water Temperature
  • Satellite Maps
  • Weather Map
  • Weather Widgets
  • user-avatar
    Login

    Hourly Weather Kotonu

    Today, 24 February, Friday

    Time Temperature Precipitation Wind Pressure Humidity
    00:00 +29°C° 0 mm 4 mps 757 mmHg 86%
    01:00 +29°C° 0 mm 4 mps 757 mmHg 88%
    02:00 +28°C° 0 mm 4 mps 757 mmHg 89%
    03:00 +28°C° 0 mm 4 mps 756 mmHg 90%
    04:00 +28°C° 0 mm 3 mps 756 mmHg 91%
    05:00 +28°C° 0 mm 3 mps 757 mmHg 92%
    06:00 +28°C° 0 mm 3 mps 757 mmHg 93%
    07:00 +29°C° 0.1 mm 3 mps 757 mmHg 84%
    08:00 +31°C° 0.1 mm 3 mps 757 mmHg 75%
    09:00 +34°C° 0.1 mm 3 mps 758 mmHg 66%
    10:00 +35°C° 0.5 mm 3 mps 757 mmHg 61%
    11:00 +36°C° 0.5 mm 3 mps 757 mmHg 57%
    12:00 +37°C° 0.5 mm 3 mps 757 mmHg 52%
    13:00 +36°C° 0.1 mm 3 mps 756 mmHg 53%
    14:00 +36°C° 0.1 mm 4 mps 756 mmHg 53%
    15:00 +36°C° 0.1 mm 4 mps 755 mmHg 54%
    16:00 +34°C° 0 mm 4 mps 755 mmHg 61%
    17:00 +33°C° 0 mm 4 mps 755 mmHg 67%
    18:00 +30°C° 0 mm 5 mps 756 mmHg 74%
    19:00 +30°C° 0 mm 5 mps 756 mmHg 76%
    20:00 +30°C° 0 mm 5 mps 757 mmHg 79%
    21:00 +29°C° 0 mm 5 mps 757 mmHg 81%
    22:00 +29°C° 0 mm 5 mps 757 mmHg 82%
    23:00 +29°C° 0 mm 5 mps 757 mmHg 83%

    Tomorrow, 25 February, Saturday

    Time Temperature Precipitation Wind Pressure Humidity
    00:00 +29°C° 0 mm 5 mps 757 mmHg 83%
    01:00 +29°C° 0 mm 4 mps 757 mmHg 85%
    02:00 +28°C° 0 mm 4 mps 756 mmHg 87%
    03:00 +28°C° 0 mm 3 mps 756 mmHg 89%
    04:00 +28°C° 0 mm 3 mps 756 mmHg 90%
    05:00 +28°C° 0 mm 3 mps 756 mmHg 92%
    06:00 +28°C° 0 mm 3 mps 756 mmHg 93%
    07:00 +29°C° 0 mm 3 mps 757 mmHg 87%
    08:00 +30°C° 0 mm 3 mps 757 mmHg 80%
    09:00 +31°C° 0 mm 3 mps 758 mmHg 74%
    10:00 +33°C° 0.1 mm 3 mps 758 mmHg 68%
    11:00 +34°C° 0.1 mm 3 mps 757 mmHg 63%
    12:00 +36°C° 0.1 mm 2 mps 757 mmHg 57%
    13:00 +36°C° 0 mm 3 mps 756 mmHg 56%
    14:00 +36°C° 0 mm 3 mps 756 mmHg 55%
    15:00 +36°C° 0 mm 4 mps 755 mmHg 54%
    16:00 +35°C° 0 mm 4 mps 755 mmHg 61%
    17:00 +33°C° 0 mm 4 mps 755 mmHg 68%
    18:00 +32°C° 0 mm 4 mps 756 mmHg 75%
    19:00 +30°C° 0 mm 5 mps 756 mmHg 77%
    20:00 +30°C° 0 mm 5 mps 757 mmHg 80%
    21:00 +29°C° 0 mm 5 mps 758 mmHg 82%
    22:00 +29°C° 0 mm 5 mps 758 mmHg 83%
    23:00 +29°C° 0 mm 6 mps 757 mmHg 83%

    Day after tomorrow, 26 February, Sunday

    Time Temperature Precipitation Wind Pressure Humidity
    00:00 +29°C° 0 mm 6 mps 757 mmHg 84%
    01:00 +29°C° 0 mm 5 mps 757 mmHg 84%
    02:00 +29°C° 0 mm 5 mps 756 mmHg 85%
    03:00 +29°C° 0 mm 4 mps 756 mmHg 85%
    04:00 +29°C° 0 mm 4 mps 756 mmHg 84%
    05:00 +29°C° 0 mm 4 mps 756 mmHg 83%
    06:00 +29°C° 0 mm 4 mps 757 mmHg 82%
    07:00 +30°C° 0 mm 4 mps 757 mmHg 79%
    08:00 +30°C° 0 mm 4 mps 758 mmHg 75%
    09:00 +32°C° 0 mm 4 mps 758 mmHg 71%
    10:00 +32°C° 0.1 mm 4 mps 758 mmHg 70%
    11:00 +33°C° 0.1 mm 3 mps 757 mmHg 68%
    12:00 +33°C° 0.1 mm 3 mps 757 mmHg 67%
    13:00 +34°C° 0.1 mm 3 mps 756 mmHg 63%
    14:00 +35°C° 0.1 mm 4 mps 755 mmHg 59%
    15:00 +36°C° 0.1 mm 4 mps 755 mmHg 55%
    16:00 +34°C° 0 mm 4 mps 755 mmHg 61%
    17:00 +33°C° 0 mm 4 mps 755 mmHg 66%
    18:00 +32°C° 0 mm 4 mps 755 mmHg 72%
    19:00 +30°C° 0 mm 4 mps 756 mmHg 75%
    20:00 +30°C° 0 mm 4 mps 756 mmHg 78%
    21:00 +29°C° 0 mm 4 mps 757 mmHg 81%
    22:00 +29°C° 0 mm 5 mps 757 mmHg 81%
    23:00 +29°C° 0 mm 5 mps 757 mmHg 81%

    27 February, Monday

    Time Temperature Precipitation Wind Pressure Humidity
    00:00 +29°C° 0 mm 5 mps 756 mmHg 82%
    01:00 +29°C° 0 mm 5 mps 756 mmHg 83%
    02:00 +28°C° 0 mm 5 mps 755 mmHg 84%
    03:00 +28°C° 0 mm 4 mps 755 mmHg 86%
    04:00 +28°C° 0 mm 4 mps 755 mmHg 87%
    05:00 +28°C° 0 mm 4 mps 755 mmHg 87%
    06:00 +27°C° 0 mm 4 mps 756 mmHg 88%
    07:00 +29°C° 0 mm 4 mps 756 mmHg 80%
    08:00 +32°C° 0 mm 4 mps 757 mmHg 72%
    09:00 +34°C° 0 mm 4 mps 757 mmHg 63%
    10:00 +35°C° 0 mm 4 mps 757 mmHg 58%
    11:00 +36°C° 0 mm 4 mps 756 mmHg 53%
    12:00 +38°C° 0 mm 4 mps 756 mmHg 47%
    13:00 +37°C° 0 mm 5 mps 755 mmHg 48%
    14:00 +37°C° 0 mm 5 mps 754 mmHg 48%
    15:00 +37°C° 0 mm 5 mps 753 mmHg 49%
    16:00 +35°C° 0 mm 5 mps 754 mmHg 56%
    17:00 +34°C° 0 mm 5 mps 754 mmHg 64%
    18:00 +32°C° 0 mm 5 mps 754 mmHg 71%
    19:00 +30°C° 0 mm 5 mps 755 mmHg 74%
    20:00 +30°C° 0 mm 5 mps 755 mmHg 77%
    21:00 +30°C° 0 mm 5 mps 756 mmHg 80%
    22:00 +29°C° 0 mm 5 mps 756 mmHg 81%
    23:00 +29°C° 0 mm 5 mps 756 mmHg 82%

    28 February, Tuesday

    Time Temperature Precipitation Wind Pressure Humidity
    00:00 +29°C° 0 mm 5 mps 755 mmHg 83%
    01:00 +29°C° 0 mm 5 mps 755 mmHg 84%
    02:00 +29°C° 0 mm 5 mps 755 mmHg 85%
    03:00 +28°C° 0 mm 4 mps 754 mmHg 86%
    04:00 +29°C° 0 mm 4 mps 755 mmHg 85%
    05:00 +29°C° 0 mm 4 mps 755 mmHg 84%
    06:00 +29°C° 0 mm 4 mps 755 mmHg 83%
    07:00 +30°C° 0 mm 4 mps 756 mmHg 76%
    08:00 +32°C° 0 mm 4 mps 756 mmHg 70%
    09:00 +34°C° 0 mm 4 mps 757 mmHg 64%
    10:00 +34°C° 0 mm 4 mps 756 mmHg 62%
    11:00 +34°C° 0 mm 4 mps 756 mmHg 61%
    12:00 +35°C° 0 mm 4 mps 755 mmHg 59%
    13:00 +35°C° 0 mm 5 mps 755 mmHg 57%
    14:00 +36°C° 0 mm 5 mps 754 mmHg 54%
    15:00 +37°C° 0 mm 5 mps 754 mmHg 52%
    16:00 +35°C° 0 mm 5 mps 754 mmHg 59%
    17:00 +33°C° 0 mm 5 mps 754 mmHg 66%
    18:00 +32°C° 0 mm 5 mps 754 mmHg 73%
    19:00 +30°C° 0 mm 5 mps 755 mmHg 77%
    20:00 +30°C° 0 mm 5 mps 756 mmHg 80%
    21:00 +29°C° 0 mm 4 mps 756 mmHg 83%
    22:00 +29°C° 0 mm 5 mps 756 mmHg 83%
    23:00 +29°C° 0 mm 5 mps 756 mmHg 84%

    1 March, Wednesday

    Time Temperature Precipitation Wind Pressure Humidity
    00:00 +29°C° 0 mm 5 mps 756 mmHg 85%
    01:00 +29°C° 0 mm 5 mps 756 mmHg 84%
    02:00 +29°C° 0 mm 5 mps 755 mmHg 83%
    03:00 +29°C° 0 mm 5 mps 755 mmHg 83%
    04:00 +29°C° 0 mm 4 mps 755 mmHg 83%
    05:00 +29°C° 0 mm 4 mps 756 mmHg 83%
    06:00 +29°C° 0 mm 4 mps 756 mmHg 84%
    07:00 +30°C° 0.1 mm 4 mps 757 mmHg 79%
    08:00 +32°C° 0.1 mm 4 mps 757 mmHg 73%
    09:00 +33°C° 0.1 mm 4 mps 758 mmHg 68%
    10:00 +34°C° 0.1 mm 4 mps 757 mmHg 63%
    11:00 +35°C° 0.1 mm 4 mps 757 mmHg 58%
    12:00 +36°C° 0.1 mm 4 mps 756 mmHg 53%
    13:00 +36°C° 0.1 mm 4 mps 756 mmHg 54%
    14:00 +36°C° 0.1 mm 4 mps 755 mmHg 54%
    15:00 +36°C° 0.1 mm 5 mps 755 mmHg 55%
    16:00 +35°C° 0 mm 4 mps 755 mmHg 61%
    17:00 +33°C° 0 mm 4 mps 755 mmHg 67%
    18:00 +32°C° 0 mm 4 mps 756 mmHg 73%
    19:00 +30°C° 0 mm 5 mps 756 mmHg 76%
    20:00 +30°C° 0 mm 5 mps 757 mmHg 78%
    21:00 +29°C° 0 mm 5 mps 757 mmHg 81%
    22:00 +29°C° 0 mm 5 mps 757 mmHg 82%
    23:00 +29°C° 0 mm 5 mps 757 mmHg 83%
    Show more